GTI1786 KATL-KCVG

Flight info

Callsign GTI1786
Flight time 1h 4m
Altitude 37000
Route PADGT2 SMTTH ARTUR JAKIE7
Aircraft B748/H-SDE3FGHIM1M2RWXY/LB1

Departure

Time 2026-05-04 12:41
Airport Hartsfield Jackson Atlanta International Airport (KATL)

Arrival

Time 2026-05-04 13:46
Airport Cincinnati Northern Kentucky International Airport (KCVG)
Time Latitude Longitude Altitude Speed Heading
2026-05-04 12:02 33.65414 -84.41501 1007 ft 0 kts 32°
2026-05-04 12:25 33.65397 -84.41513 1016 ft 4 kts 32°
2026-05-04 12:25 33.65376 -84.41533 1016 ft 4 kts 50°
2026-05-04 12:26 33.65363 -84.41560 1016 ft 4 kts 83°
2026-05-04 12:26 33.65366 -84.41587 1016 ft 1 kts 122°
2026-05-04 12:26 33.65366 -84.41588 1016 ft 6 kts 122°
2026-05-04 12:32 33.65345 -84.41545 1016 ft 0 kts 124°
2026-05-04 12:32 33.65332 -84.41522 1016 ft 10 kts 123°
2026-05-04 12:33 33.65292 -84.41454 1016 ft 0 kts 135°
2026-05-04 12:33 33.65287 -84.41448 1016 ft 3 kts 135°
2026-05-04 12:33 33.65233 -84.41375 1016 ft 3 kts 140°
2026-05-04 12:33 33.65232 -84.41375 1016 ft 0 kts 140°
2026-05-04 12:35 33.65217 -84.41362 1016 ft 8 kts 151°
2026-05-04 12:35 33.65147 -84.41321 1016 ft 6 kts 147°
2026-05-04 12:35 33.65128 -84.41290 1016 ft 8 kts 114°
2026-05-04 12:35 33.65119 -84.41207 1016 ft 4 kts 91°
2026-05-04 12:36 33.65119 -84.41198 1016 ft 8 kts 91°
2026-05-04 12:36 33.65118 -84.41091 1016 ft 10 kts 91°
2026-05-04 12:36 33.65110 -84.41008 1016 ft 4 kts 106°
2026-05-04 12:36 33.65090 -84.40969 1016 ft 3 kts 131°
2026-05-04 12:37 33.65002 -84.40956 1016 ft 27 kts 181°
2026-05-04 12:37 33.64886 -84.40957 1016 ft 6 kts 162°
2026-05-04 12:37 33.64844 -84.40907 1016 ft 10 kts 118°
2026-05-04 12:37 33.64843 -84.40813 1016 ft 20 kts 86°
2026-05-04 12:38 33.64846 -84.40691 1016 ft 4 kts 89°
2026-05-04 12:38 33.64846 -84.40690 1016 ft 0 kts 89°
2026-05-04 12:39 33.64846 -84.40684 1016 ft 0 kts 89°
2026-05-04 12:39 33.64832 -84.40592 1016 ft 4 kts 118°
2026-05-04 12:40 33.64763 -84.40566 1015 ft 14 kts 176°
2026-05-04 12:40 33.64699 -84.40574 1014 ft 6 kts 210°
2026-05-04 12:40 33.64678 -84.40691 1014 ft 27 kts 271°
2026-05-04 12:40 33.64680 -84.41196 1017 ft 95 kts 269°
2026-05-04 12:41 33.64692 -84.42274 1018 ft 162 kts 273°
2026-05-04 12:41 33.64705 -84.43758 1507 ft 187 kts 269°
2026-05-04 12:41 33.64689 -84.45393 2422 ft 201 kts 268°
2026-05-04 12:41 33.64785 -84.47050 3297 ft 210 kts 287°
2026-05-04 12:42 33.65441 -84.48720 3723 ft 229 kts 298°
2026-05-04 12:42 33.66238 -84.50423 4260 ft 243 kts 298°
2026-05-04 12:42 33.67045 -84.52303 5013 ft 258 kts 295°
2026-05-04 12:42 33.67804 -84.54301 5923 ft 265 kts 294°
2026-05-04 12:43 33.68636 -84.56275 6745 ft 273 kts 307°
2026-05-04 12:43 33.70089 -84.57756 7592 ft 277 kts 334°
2026-05-04 12:43 33.71874 -84.58301 8413 ft 280 kts 357°
2026-05-04 12:43 33.73744 -84.58267 9259 ft 283 kts
2026-05-04 12:44 33.75716 -84.58121 10147 ft 286 kts
2026-05-04 12:44 33.77605 -84.58071 10902 ft 289 kts
2026-05-04 12:44 33.79627 -84.58083 11682 ft 292 kts 359°
2026-05-04 12:44 33.81670 -84.57905 12447 ft 297 kts 13°
2026-05-04 12:45 33.83698 -84.57201 13013 ft 309 kts 16°
2026-05-04 12:45 33.85574 -84.56448 13371 ft 325 kts 17°
2026-05-04 12:45 33.87764 -84.55606 13748 ft 343 kts 15°
2026-05-04 12:45 33.90098 -84.54767 14320 ft 354 kts 14°
2026-05-04 12:46 33.92488 -84.53904 15036 ft 361 kts 14°
2026-05-04 12:46 33.94908 -84.53006 15809 ft 366 kts 14°
2026-05-04 12:46 33.96527 -84.52402 16343 ft 369 kts 13°
2026-05-04 12:46 33.99815 -84.51187 17472 ft 375 kts 12°
2026-05-04 12:47 34.02321 -84.50267 18307 ft 379 kts 12°
2026-05-04 12:47 34.04857 -84.49330 19046 ft 383 kts 12°
2026-05-04 12:47 34.06552 -84.48702 19525 ft 386 kts 12°
2026-05-04 12:47 34.09142 -84.47743 20224 ft 390 kts 12°
2026-05-04 12:48 34.11757 -84.46776 20922 ft 395 kts 11°
2026-05-04 12:48 34.14404 -84.45796 21597 ft 399 kts 11°
2026-05-04 12:48 34.17084 -84.44803 22259 ft 403 kts 11°
2026-05-04 12:48 34.19763 -84.43809 22906 ft 408 kts 11°
2026-05-04 12:49 34.22495 -84.42795 23561 ft 412 kts 11°
2026-05-04 12:49 34.25248 -84.41773 24089 ft 416 kts 11°
2026-05-04 12:49 34.28027 -84.40740 24590 ft 420 kts 11°
2026-05-04 12:49 34.30850 -84.39830 25079 ft 418 kts
2026-05-04 12:50 34.33723 -84.39151 25555 ft 422 kts
2026-05-04 12:50 34.36591 -84.38470 26042 ft 426 kts
2026-05-04 12:50 34.39515 -84.37762 26520 ft 429 kts
2026-05-04 12:50 34.42336 -84.37077 26930 ft 433 kts
2026-05-04 12:51 34.45173 -84.36394 27381 ft 436 kts
2026-05-04 12:51 34.48161 -84.35677 27852 ft 440 kts
2026-05-04 12:51 34.51138 -84.34959 28326 ft 443 kts
2026-05-04 12:51 34.54175 -84.34223 28800 ft 447 kts
2026-05-04 12:52 34.57254 -84.33478 29256 ft 450 kts
2026-05-04 12:52 34.60210 -84.32764 29706 ft 454 kts
2026-05-04 12:52 34.63281 -84.32021 30190 ft 457 kts
2026-05-04 12:52 34.66422 -84.31260 30593 ft 460 kts
2026-05-04 12:53 34.69584 -84.30492 30999 ft 463 kts
2026-05-04 12:53 34.72767 -84.29720 31378 ft 466 kts
2026-05-04 12:53 34.75961 -84.28945 31752 ft 469 kts
2026-05-04 12:53 34.79144 -84.28171 32125 ft 471 kts
2026-05-04 12:54 34.82370 -84.27386 32501 ft 474 kts
2026-05-04 12:54 34.85622 -84.26595 32875 ft 476 kts
2026-05-04 12:54 34.88840 -84.25811 33284 ft 478 kts
2026-05-04 12:54 34.92113 -84.25013 33649 ft 480 kts
2026-05-04 12:55 34.95398 -84.24211 34006 ft 481 kts
2026-05-04 12:55 34.98683 -84.23409 34367 ft 481 kts
2026-05-04 12:55 35.01969 -84.22603 34824 ft 479 kts
2026-05-04 12:55 35.05248 -84.21801 35235 ft 478 kts
2026-05-04 12:56 35.08470 -84.21013 35608 ft 477 kts
2026-05-04 12:56 35.11735 -84.20214 35992 ft 476 kts
2026-05-04 12:56 35.14990 -84.19415 36334 ft 475 kts
2026-05-04 12:56 35.18200 -84.18627 36672 ft 475 kts
2026-05-04 12:57 35.21446 -84.17831 36943 ft 475 kts
2026-05-04 12:57 35.24697 -84.17031 37120 ft 473 kts
2026-05-04 12:57 35.27886 -84.16245 37115 ft 471 kts
2026-05-04 12:58 35.34306 -84.14666 37103 ft 468 kts
2026-05-04 12:58 35.40700 -84.13087 37102 ft 466 kts
2026-05-04 12:59 35.47014 -84.11529 37080 ft 465 kts
2026-05-04 12:59 35.53378 -84.09953 37076 ft 465 kts
2026-05-04 13:00 35.59690 -84.08389 37078 ft 465 kts
2026-05-04 13:00 35.66045 -84.06808 37095 ft 464 kts
2026-05-04 13:01 35.72352 -84.05242 37118 ft 464 kts
2026-05-04 13:01 35.78697 -84.03660 37121 ft 465 kts
2026-05-04 13:02 35.85045 -84.02076 37120 ft 465 kts
2026-05-04 13:02 35.91357 -84.00473 37138 ft 467 kts
2026-05-04 13:03 35.97675 -83.98253 37144 ft 470 kts
2026-05-04 13:03 36.01843 -83.96786 37145 ft 470 kts
2026-05-04 13:04 36.10056 -83.93892 37162 ft 470 kts
2026-05-04 13:04 36.16319 -83.91677 37112 ft 469 kts
2026-05-04 13:05 36.22603 -83.89454 37084 ft 469 kts
2026-05-04 13:05 36.28893 -83.87223 37083 ft 470 kts
2026-05-04 13:06 36.35153 -83.85000 37124 ft 469 kts
2026-05-04 13:06 36.41437 -83.82763 37080 ft 468 kts
2026-05-04 13:07 36.47673 -83.80542 37077 ft 468 kts
2026-05-04 13:07 36.53958 -83.78403 37068 ft 461 kts
2026-05-04 13:08 36.60280 -83.77319 37051 ft 459 kts
2026-05-04 13:08 36.66564 -83.76197 37056 ft 459 kts
2026-05-04 13:09 36.72888 -83.75087 37053 ft 458 kts
2026-05-04 13:09 36.79211 -83.73969 37042 ft 457 kts
2026-05-04 13:10 36.85500 -83.72857 37038 ft 458 kts
2026-05-04 13:10 36.91808 -83.71736 37020 ft 455 kts
2026-05-04 13:11 36.98088 -83.70625 37042 ft 455 kts
2026-05-04 13:11 37.04335 -83.69512 37042 ft 456 kts
2026-05-04 13:12 37.10630 -83.68391 37031 ft 456 kts
2026-05-04 13:12 37.16926 -83.67268 37018 ft 456 kts
2026-05-04 13:13 37.23191 -83.66147 37008 ft 456 kts
2026-05-04 13:13 37.29467 -83.65025 36742 ft 456 kts
2026-05-04 13:13 37.32619 -83.64566 36183 ft 450 kts 352°
2026-05-04 13:14 37.35694 -83.64864 35661 ft 435 kts 341°
2026-05-04 13:14 37.38583 -83.65847 35136 ft 426 kts 334°
2026-05-04 13:14 37.41367 -83.67128 34598 ft 423 kts 332°
2026-05-04 13:14 37.44073 -83.68424 34085 ft 422 kts 333°
2026-05-04 13:15 37.46908 -83.69551 33517 ft 425 kts 338°
2026-05-04 13:15 37.49782 -83.70450 32976 ft 424 kts 339°
2026-05-04 13:15 37.52592 -83.71387 32456 ft 419 kts 336°
2026-05-04 13:15 37.55385 -83.72456 31955 ft 415 kts 336°
2026-05-04 13:16 37.58151 -83.73510 31417 ft 415 kts 338°
2026-05-04 13:16 37.60895 -83.74484 30889 ft 414 kts 338°
2026-05-04 13:16 37.63670 -83.75459 30386 ft 412 kts 338°
2026-05-04 13:16 37.66428 -83.76466 29815 ft 410 kts 338°
2026-05-04 13:17 37.69167 -83.77475 29290 ft 407 kts 338°
2026-05-04 13:17 37.71851 -83.78451 28791 ft 404 kts 338°
2026-05-04 13:17 37.74557 -83.79428 28267 ft 402 kts 338°
2026-05-04 13:17 37.77231 -83.80400 27780 ft 399 kts 338°
2026-05-04 13:18 37.79894 -83.81374 27296 ft 397 kts 338°
2026-05-04 13:18 37.82545 -83.82342 26765 ft 395 kts 338°
2026-05-04 13:18 37.85181 -83.83300 26259 ft 389 kts 338°
2026-05-04 13:18 37.87755 -83.84237 25773 ft 381 kts 338°
2026-05-04 13:19 37.90286 -83.85162 25301 ft 374 kts 338°
2026-05-04 13:19 37.92746 -83.86064 24849 ft 370 kts 338°
2026-05-04 13:19 37.95225 -83.86975 24378 ft 371 kts 338°
2026-05-04 13:19 37.97712 -83.87886 23964 ft 372 kts 339°
2026-05-04 13:20 38.00159 -83.88779 23467 ft 365 kts 339°
2026-05-04 13:20 38.02577 -83.89662 22986 ft 356 kts 338°
2026-05-04 13:20 38.04934 -83.90526 22541 ft 347 kts 338°
2026-05-04 13:20 38.07240 -83.91374 22084 ft 339 kts 337°
2026-05-04 13:21 38.09474 -83.92200 21674 ft 339 kts 338°
2026-05-04 13:21 38.11748 -83.93038 21234 ft 339 kts 337°
2026-05-04 13:21 38.13897 -83.94212 20819 ft 330 kts 325°
2026-05-04 13:21 38.15865 -83.95632 20446 ft 329 kts 325°
2026-05-04 13:22 38.17862 -83.97069 20097 ft 326 kts 325°
2026-05-04 13:22 38.19830 -83.98477 19756 ft 323 kts 325°
2026-05-04 13:22 38.21760 -83.99860 19409 ft 321 kts 325°
2026-05-04 13:22 38.23701 -84.01254 19089 ft 319 kts 325°
2026-05-04 13:23 38.25629 -84.02641 18750 ft 318 kts 325°
2026-05-04 13:23 38.27553 -84.04024 18405 ft 316 kts 325°
2026-05-04 13:23 38.29475 -84.05406 18064 ft 315 kts 325°
2026-05-04 13:23 38.31389 -84.06784 17790 ft 318 kts 325°
2026-05-04 13:24 38.33290 -84.08155 17461 ft 318 kts 325°
2026-05-04 13:24 38.35216 -84.09540 17136 ft 316 kts 325°
2026-05-04 13:24 38.37128 -84.10918 16794 ft 315 kts 325°
2026-05-04 13:25 38.40918 -84.13655 16139 ft 311 kts 325°
2026-05-04 13:25 38.42802 -84.15015 15814 ft 309 kts 325°
2026-05-04 13:25 38.44671 -84.16366 15494 ft 307 kts 325°
2026-05-04 13:25 38.46523 -84.17707 15167 ft 304 kts 325°
2026-05-04 13:26 38.48332 -84.19017 14846 ft 301 kts 325°
2026-05-04 13:26 38.50154 -84.20337 14545 ft 300 kts 325°
2026-05-04 13:26 38.51968 -84.21652 14237 ft 299 kts 325°
2026-05-04 13:26 38.53775 -84.22964 13922 ft 298 kts 325°
2026-05-04 13:27 38.55582 -84.24274 13591 ft 296 kts 325°
2026-05-04 13:27 38.57370 -84.25573 13283 ft 298 kts 325°
2026-05-04 13:27 38.59156 -84.26870 12976 ft 297 kts 325°
2026-05-04 13:27 38.60951 -84.28173 12657 ft 296 kts 324°
2026-05-04 13:28 38.62745 -84.29476 12346 ft 294 kts 324°
2026-05-04 13:28 38.64511 -84.30797 12056 ft 290 kts 319°
2026-05-04 13:28 38.65918 -84.32569 12009 ft 284 kts 306°
2026-05-04 13:28 38.67180 -84.34498 12033 ft 287 kts 306°
2026-05-04 13:29 38.68453 -84.36468 12038 ft 287 kts 306°
2026-05-04 13:29 38.69676 -84.38340 12050 ft 287 kts 306°
2026-05-04 13:29 38.70962 -84.40302 12049 ft 287 kts 306°
2026-05-04 13:29 38.72248 -84.42272 12052 ft 287 kts 306°
2026-05-04 13:30 38.73525 -84.44234 12053 ft 287 kts 306°
2026-05-04 13:30 38.74790 -84.46179 12053 ft 287 kts 306°
2026-05-04 13:30 38.76072 -84.48146 12053 ft 287 kts 306°
2026-05-04 13:30 38.77355 -84.50118 12077 ft 288 kts 306°
2026-05-04 13:31 38.78639 -84.52092 12067 ft 288 kts 306°
2026-05-04 13:31 38.79922 -84.54065 12067 ft 288 kts 306°
2026-05-04 13:31 38.81209 -84.56047 12058 ft 288 kts 306°
2026-05-04 13:31 38.82492 -84.58025 12065 ft 288 kts 306°
2026-05-04 13:32 38.83784 -84.60017 11655 ft 293 kts 306°
2026-05-04 13:32 38.85088 -84.62027 11242 ft 292 kts 306°
2026-05-04 13:32 38.86366 -84.63995 10854 ft 283 kts 306°
2026-05-04 13:32 38.87594 -84.65890 10492 ft 275 kts 306°
2026-05-04 13:33 38.88803 -84.67757 10121 ft 268 kts 304°
2026-05-04 13:33 38.89974 -84.69567 9790 ft 254 kts 304°
2026-05-04 13:33 38.91061 -84.71241 9431 ft 233 kts 304°
2026-05-04 13:33 38.92060 -84.72786 9111 ft 216 kts 304°
2026-05-04 13:34 38.92994 -84.74238 8830 ft 205 kts 303°
2026-05-04 13:34 38.93887 -84.75628 8583 ft 204 kts 303°
2026-05-04 13:34 38.94791 -84.77033 8327 ft 204 kts 304°
2026-05-04 13:34 38.95815 -84.78316 8041 ft 210 kts 320°
2026-05-04 13:35 38.97177 -84.79091 7798 ft 220 kts 338°
2026-05-04 13:35 39.00307 -84.79346 7362 ft 226 kts 348°
2026-05-04 13:35 39.01881 -84.79415 7129 ft 226 kts 348°
2026-05-04 13:36 39.03424 -84.79490 6933 ft 216 kts 347°
2026-05-04 13:36 39.04897 -84.79547 6685 ft 209 kts 349°
2026-05-04 13:36 39.06328 -84.79531 6454 ft 204 kts 348°
2026-05-04 13:36 39.07748 -84.79538 6239 ft 203 kts 349°
2026-05-04 13:37 39.09161 -84.79538 6024 ft 203 kts 349°
2026-05-04 13:37 39.10599 -84.79537 6015 ft 214 kts 349°
2026-05-04 13:37 39.12129 -84.79545 6021 ft 222 kts 350°
2026-05-04 13:37 39.13150 -84.79540 6012 ft 223 kts 350°
2026-05-04 13:38 39.15239 -84.79535 6009 ft 224 kts 350°
2026-05-04 13:38 39.16803 -84.79535 6006 ft 224 kts 350°
2026-05-04 13:38 39.18373 -84.79536 5892 ft 226 kts 350°
2026-05-04 13:38 39.19912 -84.79534 5661 ft 223 kts 350°
2026-05-04 13:39 39.21464 -84.79534 5405 ft 223 kts 350°
2026-05-04 13:39 39.23013 -84.79535 5159 ft 223 kts 351°
2026-05-04 13:39 39.24569 -84.79536 4924 ft 225 kts 352°
2026-05-04 13:39 39.26111 -84.79430 4631 ft 225 kts
2026-05-04 13:40 39.27464 -84.78381 4392 ft 231 kts 45°
2026-05-04 13:40 39.28151 -84.76508 4484 ft 238 kts 80°
2026-05-04 13:40 39.28000 -84.74404 4487 ft 234 kts 116°
2026-05-04 13:40 39.27058 -84.72777 4494 ft 222 kts 150°
2026-05-04 13:41 39.25788 -84.71662 4511 ft 221 kts 152°
2026-05-04 13:41 39.24619 -84.70344 4505 ft 226 kts 136°
2026-05-04 13:41 39.23703 -84.68702 4403 ft 229 kts 128°
2026-05-04 13:42 39.21242 -84.66799 3815 ft 197 kts 194°
2026-05-04 13:42 39.20360 -84.66843 3648 ft 194 kts 187°
2026-05-04 13:42 39.18543 -84.66802 3277 ft 195 kts 187°
2026-05-04 13:42 39.17650 -84.66796 3140 ft 192 kts 191°
2026-05-04 13:43 39.16313 -84.66828 2877 ft 190 kts 189°
2026-05-04 13:43 39.14593 -84.66835 2535 ft 182 kts 188°
2026-05-04 13:43 39.13775 -84.66829 2376 ft 166 kts 189°
2026-05-04 13:43 39.12703 -84.66827 2145 ft 148 kts 187°
2026-05-04 13:44 39.11710 -84.66846 1910 ft 140 kts 189°
2026-05-04 13:44 39.10709 -84.66841 1752 ft 148 kts 184°
2026-05-04 13:44 39.09710 -84.66846 1551 ft 141 kts 183°
2026-05-04 13:44 39.08723 -84.66863 1352 ft 144 kts 181°
2026-05-04 13:45 39.07699 -84.66860 1190 ft 150 kts 182°
2026-05-04 13:45 39.06646 -84.66870 987 ft 151 kts 181°
2026-05-04 13:45 39.05645 -84.66862 882 ft 132 kts 186°
2026-05-04 13:45 39.05003 -84.66870 887 ft 51 kts 179°
2026-05-04 13:46 39.04837 -84.66833 889 ft 6 kts 133°
2026-05-04 13:46 39.04817 -84.66795 889 ft 11 kts 123°
2026-05-04 13:46 39.04789 -84.66757 890 ft 9 kts 136°
2026-05-04 13:46 39.04740 -84.66654 890 ft 10 kts 99°
2026-05-04 13:47 39.04741 -84.66495 886 ft 25 kts 88°
2026-05-04 13:47 39.04740 -84.66291 884 ft 21 kts 91°
2026-05-04 13:47 39.04738 -84.66124 881 ft 17 kts 91°
2026-05-04 13:47 39.04739 -84.65912 877 ft 28 kts 90°
2026-05-04 13:48 39.04738 -84.65711 879 ft 17 kts 91°
2026-05-04 13:48 39.04737 -84.65579 878 ft 16 kts 90°
2026-05-04 13:48 39.04738 -84.65416 880 ft 17 kts 91°
2026-05-04 13:48 39.04750 -84.65331 883 ft 4 kts 58°
2026-05-04 13:49 39.04802 -84.65250 886 ft 12 kts 59°
2026-05-04 13:49 39.04810 -84.65172 887 ft 21 kts 88°
2026-05-04 13:49 39.04784 -84.65011 888 ft 16 kts 141°
2026-05-04 13:49 39.04632 -84.64986 890 ft 21 kts 181°
2026-05-04 13:50 39.04504 -84.64992 888 ft 16 kts 182°
2026-05-04 13:50 39.04402 -84.64990 885 ft 14 kts 178°
2026-05-04 13:50 39.04258 -84.64991 886 ft 25 kts 181°
2026-05-04 13:50 39.04079 -84.64991 885 ft 31 kts 178°
2026-05-04 13:51 39.03882 -84.64993 887 ft 21 kts 181°
2026-05-04 13:51 39.03775 -84.64995 889 ft 13 kts 181°
2026-05-04 13:51 39.03667 -84.64995 890 ft 21 kts 180°
2026-05-04 13:51 39.03592 -84.65022 892 ft 2 kts 228°
2026-05-04 13:52 39.03551 -84.65132 895 ft 11 kts 218°
2026-05-04 13:52 39.03451 -84.65242 896 ft 16 kts 235°
2026-05-04 13:52 39.03429 -84.65331 898 ft 21 kts 267°
2026-05-04 13:53 39.03440 -84.65417 899 ft 0 kts 283°
2026-05-04 13:53 39.03443 -84.65451 899 ft 0 kts 275°